Location: St. Louis
(38.6270°N, 90.1994°W)
Time: 15:40:53
(UTC-05:00)

ISS - Pass Details

Date: 25 April 2014
Orbit: 402 x 404 km, 51.6° (Epoch: 28 May)

Event Time Altitude Azimuth Distance (km) Brightness Sun altitude
Rises 20:59:25 0° 296° (WNW) 2,329 2.5 -13.7°
Reaches altitude 10° 21:01:49 10° 280° (W) 1,461 0.7 -14.1°
Maximum altitude 21:04:23 21° 229° (SW) 959 -1.3 -14.5°
Enters shadow 21:06:25 13° 183° (S) 1,294 -1.1 -14.9°
